Date String (YYYY-MM-DD hh:mm:ss) UTC,Instrument flags,Ambient pressure (hPa),Sample flow (lpm),Bypass flow (lpm),Sample temperature (°C),Ambient temperature (°C),ASC tube jacket temperature (°C),LED temperature (°C),Box temperature (°C),Sample RH (%),Span deviation,Mass concentration (μg/m³),Mass concentration (μg/m³),Mass concentration (μg/m³)
DateTimeUTC,F1_M11,P_M11,Q1_M11,Q2_M11,T1_M11,T2_M11,T3_M11,T4_M11,T5_M11,U1_M11,ZSPAN_M11,X0_M11,X2_M11,X1_M11
2021-12-18 20:00:00,,0828.2,4.99,0.00,24.9,24.0,00.0,33.8,26.8,07.5,0000.0,0014.20,0005.76,0004.67
2021-12-18 20:01:00,,0828.3,5.02,0.00,24.9,24.1,00.0,33.8,26.7,07.5,0000.0,0014.81,0005.80,0004.69
2021-12-18 20:02:00,,0828.1,4.99,0.00,24.9,24.1,00.0,33.8,26.8,07.5,0000.0,0014.54,0005.74,0004.69
2021-12-18 20:03:00,,0828.1,5.02,0.00,24.9,24.1,00.0,33.8,26.7,07.5,0000.0,0014.96,0005.72,0004.70
2021-12-18 20:04:00,,0828.3,4.99,0.00,24.9,24.1,00.0,33.8,26.8,07.5,0000.0,0014.08,0005.73,0004.71
2021-12-18 20:05:00,,0828.1,5.01,0.00,24.9,24.1,00.0,33.8,26.8,07.5,0000.0,0013.87,0005.71,0004.71
2021-12-18 20:06:00,,0828.1,4.98,0.00,24.9,24.1,00.0,33.8,26.8,07.5,0000.0,0013.80,0005.71,0004.72
2021-12-18 20:07:00,,0828.1,5.01,0.00,24.9,24.1,00.0,33.8,26.8,07.5,0000.0,0013.52,0005.70,0004.71
2021-12-18 20:08:00,,0828.1,4.99,0.00,25.0,24.1,00.0,33.9,26.8,07.5,0000.0,0013.60,0005.68,0004.70
2021-12-18 20:09:00,,0828.1,5.02,0.00,25.0,24.1,00.0,33.9,26.8,07.5,0000.0,0013.88,0005.70,0004.69
2021-12-18 20:10:00,,0828.1,4.99,0.00,25.0,24.2,00.0,33.9,26.8,07.5,0000.0,0014.24,0005.71,0004.68
2021-12-18 20:11:00,,0828.1,4.99,0.00,25.0,24.1,00.0,33.9,26.8,07.5,0000.0,0014.11,0005.71,0004.67
2021-12-18 20:12:00,,0828.1,5.00,0.00,25.0,24.2,00.0,33.9,26.8,07.5,0000.0,0013.35,0005.71,0004.66
2021-12-18 20:13:00,,0828.0,5.00,0.00,25.0,24.2,00.0,33.9,26.9,07.4,0000.0,0014.01,0005.74,0004.67
2021-12-18 20:14:00,,0828.0,5.00,0.00,25.0,24.1,00.0,33.9,26.9,07.4,0000.0,0015.48,0005.75,0004.69
2021-12-18 20:15:00,,0828.0,4.99,0.00,25.0,24.1,00.0,33.9,26.9,07.4,0000.0,0016.09,0005.75,0004.70
2021-12-18 20:16:00,,0828.0,5.01,0.00,25.0,24.1,00.0,33.9,26.8,07.4,0000.0,0016.02,0005.77,0004.73
2021-12-18 20:17:00,,0828.0,5.00,0.00,25.0,24.1,00.0,33.9,26.8,07.4,0000.0,0015.93,0005.75,0004.74
2021-12-18 20:18:00,,0828.0,5.00,0.00,25.0,24.1,00.0,33.9,26.8,07.4,0000.0,0015.92,0005.76,0004.75
2021-12-18 20:19:00,,0828.0,5.00,0.00,25.0,24.1,00.0,33.9,26.8,07.4,0000.0,0016.41,0005.79,0004.78
2021-12-18 20:20:00,,0828.0,5.01,0.00,25.0,24.1,00.0,33.9,26.8,07.4,0000.0,0016.48,0005.79,0004.80
2021-12-18 20:21:00,,0827.9,4.98,0.00,25.0,24.2,00.0,33.9,26.8,07.4,0000.0,0015.71,0005.78,0004.84
2021-12-18 20:22:00,,0827.9,5.00,0.00,25.0,24.2,00.0,34.0,26.9,07.4,0000.0,0015.10,0005.80,0004.89
2021-12-18 20:23:00,,0827.9,5.01,0.00,25.0,24.2,00.0,34.0,26.9,07.4,0000.0,0015.51,0005.84,0004.93
2021-12-18 20:24:00,,0827.9,5.01,0.00,25.0,24.2,00.0,34.0,26.8,07.4,0000.0,0015.53,0005.88,0004.97
2021-12-18 20:25:00,,0828.0,5.00,0.00,25.0,24.2,00.0,34.0,26.9,07.4,0000.0,0013.57,0005.89,0004.98
2021-12-18 20:26:00,,0827.9,4.99,0.00,25.0,24.2,00.0,34.0,26.9,07.4,0000.0,0012.78,0005.93,0005.00
2021-12-18 20:27:00,,0827.8,4.99,0.00,25.0,24.2,00.0,34.0,26.9,07.4,0000.0,0013.02,0005.94,0005.02
2021-12-18 20:28:00,,0827.8,5.01,0.00,25.0,24.2,00.0,34.0,26.9,07.4,0000.0,0013.46,0005.98,0005.05
2021-12-18 20:29:00,,0827.9,5.00,0.00,25.0,24.1,00.0,34.0,26.9,07.4,0000.0,0013.67,0006.05,0005.09
2021-12-18 20:30:00,,0827.8,4.99,0.00,25.1,24.1,00.0,34.0,26.9,07.4,0000.0,0013.14,0006.09,0005.11
2021-12-18 20:31:00,,0827.9,5.01,0.00,25.1,24.2,00.0,34.0,26.9,07.4,0000.0,0013.38,0006.12,0005.12
2021-12-18 20:32:00,,0827.9,5.00,0.00,25.1,24.2,00.0,34.0,26.9,07.4,0000.0,0014.44,0006.15,0005.12
2021-12-18 20:33:00,,0827.9,5.00,0.00,25.1,24.2,00.0,34.0,26.9,07.4,0000.0,0014.98,0006.11,0005.13
2021-12-18 20:34:00,,0827.9,5.01,0.00,25.1,24.3,00.0,34.0,26.9,07.4,0000.0,0014.62,0006.14,0005.16
2021-12-18 20:35:00,,0827.9,5.00,0.00,25.1,24.3,00.0,34.0,26.9,07.4,0000.0,0015.27,0006.23,0005.23
2021-12-18 20:36:00,,0827.9,5.01,0.00,25.1,24.3,00.0,34.0,26.9,07.4,0000.0,0015.49,0006.32,0005.32
2021-12-18 20:37:00,,0827.9,4.99,0.00,25.1,24.3,00.0,34.0,26.9,07.3,0000.0,0015.70,0006.38,0005.39
2021-12-18 20:38:00,,0827.9,5.01,0.00,25.1,24.3,00.0,34.0,26.9,07.3,0000.0,0015.97,0006.49,0005.47
2021-12-18 20:39:00,,0827.9,5.00,0.00,25.1,24.2,00.0,34.0,27.0,07.3,0000.0,0015.82,0006.58,0005.54
2021-12-18 20:40:00,,0827.8,4.99,0.00,25.1,24.2,00.0,34.0,27.0,07.3,0000.0,0016.04,0006.60,0005.58
2021-12-18 20:41:00,,0827.8,4.99,0.00,25.1,24.2,00.0,34.0,26.9,07.4,0000.0,0016.08,0006.63,0005.64
2021-12-18 20:42:00,,0827.8,5.00,0.00,25.1,24.2,00.0,34.0,26.9,07.4,0000.0,0016.34,0006.68,0005.70
2021-12-18 20:43:00,,0827.8,5.00,0.00,25.1,24.1,00.0,34.0,26.9,07.4,0000.0,0016.13,0006.75,0005.77
2021-12-18 20:44:00,,0827.8,5.00,0.00,25.1,24.1,00.0,34.0,26.8,07.4,0000.0,0016.18,0006.89,0005.84
2021-12-18 20:45:00,,0827.8,5.01,0.00,25.0,24.1,00.0,34.0,26.8,07.4,0000.0,0016.04,0006.94,0005.89
2021-12-18 20:46:00,,0827.8,4.99,0.00,25.0,24.1,00.0,34.0,26.8,07.4,0000.0,0015.51,0006.93,0005.88
2021-12-18 20:47:00,,0827.8,5.02,0.00,25.0,24.0,00.0,34.0,26.7,07.3,0000.0,0015.50,0006.96,0005.88
2021-12-18 20:48:00,,0827.8,4.99,0.00,25.0,24.0,00.0,34.0,26.7,07.3,0000.0,0015.29,0006.94,0005.88
2021-12-18 20:49:00,,0827.8,5.01,0.00,25.0,24.0,00.0,34.0,26.7,07.3,0000.0,0014.83,0006.93,0005.88
2021-12-18 20:50:00,,0827.8,5.00,0.00,24.9,23.9,00.0,34.0,26.7,07.3,0000.0,0014.84,0006.93,0005.89
2021-12-18 20:51:00,,0827.8,4.99,0.00,24.9,24.0,00.0,33.9,26.7,07.3,0000.0,0014.41,0006.93,0005.90
2021-12-18 20:52:00,,0827.8,5.01,0.00,24.9,24.0,00.0,33.9,26.7,07.3,0000.0,0014.87,0006.96,0005.92
2021-12-18 20:53:00,,0827.8,5.00,0.00,24.9,24.0,00.0,33.9,26.7,07.4,0000.0,0014.76,0006.97,0005.93
2021-12-18 20:54:00,,0827.8,4.99,0.00,24.9,24.0,00.0,33.9,26.7,07.4,0000.0,0013.86,0006.96,0005.94
2021-12-18 20:55:00,,0827.8,5.01,0.00,24.9,24.0,00.0,33.9,26.7,07.4,0000.0,0013.05,0006.90,0005.93
2021-12-18 20:56:00,,0827.8,5.00,0.00,24.9,24.0,00.0,33.9,26.6,07.4,0000.0,0012.97,0006.89,0005.94
2021-12-18 20:57:00,,0827.7,5.01,0.00,24.9,23.9,00.0,33.9,26.6,07.4,0000.0,0013.34,0006.89,0005.97
2021-12-18 20:58:00,,0827.7,4.98,0.00,24.8,23.9,00.0,33.9,26.6,07.4,0000.0,0013.79,0006.89,0005.98
2021-12-18 20:59:00,,0827.7,5.01,0.00,24.8,23.9,00.0,33.9,26.6,07.4,0000.0,0014.12,0006.93,0005.99
